Weather History for Naples, Italy

Change the Weather History Date:

Saturday, August 24, 2013

  Actual Average Record
Temperature  
Mean Temperature 78 °F -  
Max Temperature 86 °F 80 °F 100 °F (2007)
Min Temperature 71 °F 61 °F 64 °F (2004)
Cooling Degree Days 14    
Growing Degree Days 28 (Base 50)    
Moisture  
Dew Point 66 °F    
Average Humidity 67    
Maximum Humidity 83    
Minimum Humidity 51    
Precipitation  
Precipitation 0.00 in 0.10 in - ()
Sea Level Pressure  
Sea Level Pressure 29.96 in    
Wind  
Wind Speed 4 mph ()    
Max Wind Speed 12 mph    
Max Gust Speed -    
Visibility 6.2 miles    
Events      
Averages and records for this station are not official NWS values.
T = Trace of Precipitation, MM = Missing Value Source: Averaged Metar Reports

Daily Weather History Graph

Daily Weather History Graph

Search for Another Location

Airport:

Trip Planner

Search our weather history database for the weather conditions in past years. The results will help you decide how hot, cold, wet, or windy it might be!

Date:

Astronomy

Aug. 24, 2013 Rise Set
Actual Time 6:21 AM CEST 7:47 PM CEST
Civil Twilight 5:52 AM CEST 8:16 PM CEST
Nautical Twilight 5:18 AM CEST 8:50 PM CEST
Astronomical Twilight 4:41 AM CEST 9:27 PM CEST
Moon 9:29 PM CEST (8/24) 10:05 AM CEST (8/24)
Length of Visible Light 14h 23m
Length of Day
13h 26m
Waning Gibbous, 86% of the Moon is Illuminated
Aug 24
Waning Gibbous
Aug 28
Last Quarter
Sep 5
New
Sep 12
First Quarter
Sep 19
Full

Hourly Weather History & Observations

Time (CEST) Temp. Heat Index Dew Point Humidity Pressure Visibility Wind Dir Wind Speed Gust Speed Precip Events Conditions
12:20 AM 75.2 °F - 66.2 °F 73% 30.01 in - ENE 3.5 mph - N/A   Clear
12:50 AM 75.2 °F - 66.2 °F 73% 30.01 in - Variable 1.2 mph - N/A   Clear
1:20 AM 73.4 °F - 64.4 °F 73% 30.01 in - Variable 1.2 mph - N/A   Clear
1:50 AM 73.4 °F - 66.2 °F 78% 29.98 in - Variable 1.2 mph - N/A   Clear
2:20 AM 73.4 °F - 64.4 °F 73% 30.01 in - ENE 3.5 mph - N/A   Clear
2:50 AM 71.6 °F - 64.4 °F 78% 30.01 in - Variable 2.3 mph - N/A   Clear
3:20 AM 73.4 °F - 64.4 °F 73% 29.98 in - ENE 2.3 mph - N/A   Clear
3:50 AM 71.6 °F - 64.4 °F 78% 29.98 in - NE 2.3 mph - N/A   Clear
4:20 AM 71.6 °F - 64.4 °F 78% 29.98 in - NNE 2.3 mph - N/A   Clear
4:50 AM 73.4 °F - 64.4 °F 73% 29.98 in - NNE 2.3 mph - N/A   Clear
5:20 AM 71.6 °F - 64.4 °F 78% 29.98 in - NNE 3.5 mph - N/A   Clear
5:50 AM 73.4 °F - 64.4 °F 73% 29.98 in - NE 2.3 mph - N/A   Clear
6:20 AM 71.6 °F - 64.4 °F 78% 29.98 in - NNE 2.3 mph - N/A   Clear
6:50 AM 71.6 °F - 66.2 °F 83% 29.98 in - NNE 2.3 mph - N/A   Clear
7:20 AM 73.4 °F - 66.2 °F 78% 29.98 in 6.2 mi Variable 1.2 mph - N/A   Partly Cloudy
7:50 AM 77.0 °F - 68.0 °F 74% 29.98 in 6.2 mi Variable 2.3 mph - N/A   Partly Cloudy
8:20 AM 78.8 °F - 68.0 °F 69% 29.98 in 6.2 mi East 1.2 mph - N/A   Partly Cloudy
8:50 AM 78.8 °F - 68.0 °F 69% 29.98 in 6.2 mi South 5.8 mph - N/A   Partly Cloudy
9:20 AM 78.8 °F - 68.0 °F 69% 29.98 in 6.2 mi Variable 5.8 mph - N/A   Mostly Cloudy
9:50 AM 80.6 °F 83.2 °F 68.0 °F 65% 29.98 in 6.2 mi South 5.8 mph - N/A   Mostly Cloudy
10:20 AM 80.6 °F 83.9 °F 69.8 °F 70% 29.98 in 6.2 mi South 6.9 mph - N/A   Mostly Cloudy
10:50 AM 82.4 °F 85.4 °F 68.0 °F 62% 29.98 in 6.2 mi South 8.1 mph - N/A   Mostly Cloudy
11:20 AM 82.4 °F 86.3 °F 69.8 °F 66% 29.98 in 6.2 mi South 8.1 mph - N/A   Scattered Clouds
11:50 AM 82.4 °F 85.4 °F 68.0 °F 62% 29.98 in 6.2 mi South 9.2 mph - N/A   Partly Cloudy
12:20 PM 84.2 °F 87.3 °F 68.0 °F 58% 29.98 in 6.2 mi South 9.2 mph - N/A   Scattered Clouds
12:50 PM 84.2 °F 86.6 °F 66.2 °F 55% 29.98 in 6.2 mi SSW 10.4 mph - N/A   Scattered Clouds
1:20 PM 86.0 °F 89.4 °F 68.0 °F 55% 29.98 in 6.2 mi SSW 9.2 mph - N/A   Partly Cloudy
1:50 PM 84.2 °F 87.3 °F 68.0 °F 58% 29.98 in 6.2 mi South 11.5 mph - N/A   Partly Cloudy
2:20 PM 84.2 °F 86.6 °F 66.2 °F 55% 29.95 in 6.2 mi South 11.5 mph - N/A   Partly Cloudy
2:50 PM 86.0 °F 88.2 °F 66.2 °F 51% 29.95 in 6.2 mi SSW 9.2 mph - N/A   Partly Cloudy
3:20 PM 84.2 °F 85.6 °F 64.4 °F 51% 29.95 in 6.2 mi SSW 10.4 mph - N/A   Partly Cloudy
3:50 PM 84.2 °F 86.6 °F 66.2 °F 55% 29.95 in 6.2 mi South 11.5 mph - N/A   Partly Cloudy
4:20 PM 84.2 °F 86.6 °F 66.2 °F 55% 29.95 in 6.2 mi South 10.4 mph - N/A   Partly Cloudy
4:50 PM 84.2 °F 86.6 °F 66.2 °F 55% 29.92 in 6.2 mi South 11.5 mph - N/A   Partly Cloudy
5:20 PM 82.4 °F 84.6 °F 66.2 °F 58% 29.92 in - South 11.5 mph - N/A   Clear
5:50 PM 82.4 °F 84.6 °F 66.2 °F 58% 29.92 in - South 9.2 mph - N/A   Clear
6:20 PM 82.4 °F 83.9 °F 64.4 °F 54% 29.92 in - SSW 8.1 mph - N/A   Clear
6:50 PM 80.6 °F 82.3 °F 64.4 °F 58% 29.92 in - South 6.9 mph - N/A   Clear
7:20 PM 80.6 °F 82.7 °F 66.2 °F 61% 29.92 in - SSE 5.8 mph - N/A   Clear
7:50 PM 78.8 °F - 66.2 °F 65% 29.92 in - SW 4.6 mph - N/A   Clear
8:50 PM 78.8 °F - 64.4 °F 61% 29.92 in - West 5.8 mph - N/A   Clear
9:20 PM 77.0 °F - 66.2 °F 69% 29.92 in - West 4.6 mph - N/A   Clear
9:50 PM 77.0 °F - 68.0 °F 74% 29.92 in - West 4.6 mph - N/A   Clear
10:20 PM 77.0 °F - 66.2 °F 69% 29.95 in - West 4.6 mph - N/A   Clear
10:50 PM 77.0 °F - 66.2 °F 69% 29.95 in - Variable 2.3 mph - N/A   Clear
11:20 PM 77.0 °F - 66.2 °F 69% 29.95 in - Calm Calm - N/A   Clear
11:50 PM 75.2 °F - 64.4 °F 69% 29.95 in - West 1.2 mph - N/A   Clear